GFSNIL_con_mucape_348.txt.gz
CAPE
48 20 92 77 42 20 21 27 18 10 1 0 11 0 8 4 0 0 0 0 0 0
26 50 85 100 23 26 12 16 16 11 0 13 8 7 10 2 0 0 0 0 0 0
8 1 29 48 25 21 21 19 6 2 5 11 4 8 4 6 0 1 0 0 0 0
11 26 0 17 1 9 1 23 10 12 10 12 3 13 4 2 1 4 0 0 0 0
30 0 10 0 0 1 0 1 8 11 1 4 3 5 5 0 3 0 0 0 0 0
1 10 0 0 0 9 7 12 12 9 4 5 2 2 1 2 2 0 0 0 0 0
4 1 4 5 0 0 0 0 1 1 2 0 0 0 0 0 0 0 0 0 0 0
0 0 0 0 0 0 1 0 0 0 0 0 0 0 0 0 0 0 0 0 0 0
0 0 0 0 0 0 0 0 0 0 0 0 0 0 0 0 0 0 0 0 0 0
0 0 0 0 0 0 0 0 0 0 0 0 0 0 0 0 0 0 0 0 0 0
0 0 0 0 0 0 0 0 0 0 0 0 0 0 0 0 0 0 0 0 0 0
0 0 0 0 0 0 0 0 0 0 0 0 0 0 0 0 0 0 0 0 0 0
0 0 0 0 0 0 0 0 0 0 0 0 0 0 0 0 0 0 0 0 0 0
0 0 0 0 0 0 0 0 0 0 0 0 0 0 0 0 0 0 0 0 0 0

GFSNIL_con_mucape_351.txt.gz
CAPE
0 144 79 30 24 18 43 36 26 23 20 12 1 0 0 0 0 0 0 0 0 0
5 63 16 15 22 18 29 26 30 27 21 11 11 0 0 0 0 1 0 0 0 0
15 83 26 17 7 25 31 32 9 11 7 44 3 1 4 11 10 10 0 0 0 0
7 70 17 20 32 17 52 13 7 34 13 18 9 4 7 11 4 10 0 0 0 0
4 3 17 3 0 26 0 3 24 21 14 32 9 1 1 7 18 22 2 0 0 0
20 19 9 24 1 21 0 1 9 1 0 0 4 3 2 1 3 11 2 1 0 0
17 0 5 10 10 1 1 0 0 1 1 1 3 1 0 0 2 9 1 5 0 0
11 5 2 13 1 0 0 1 1 1 1 0 2 2 1 0 0 0 0 0 0 0
9 0 0 0 0 0 0 0 0 0 0 0 0 0 0 0 0 0 0 0 0 0
2 0 0 0 0 0 0 0 0 0 0 0 0 1 0 0 0 0 0 0 0 0
0 0 0 0 0 0 0 0 0 0 0 0 0 0 0 0 0 0 0 0 0 0
0 0 0 0 0 0 0 0 0 0 0 0 0 0 0 0 0 0 0 0 0 0
0 0 0 0 0 0 0 0 0 0 0 0 0 0 0 0 0 0 0 0 0 0
0 0 0 0 0 0 0 0 0 0 0 0 0 0 0 0 0 0 0 0 0 0

GFSNIL_con_mucape_354.txt.gz
CAPE
251 146 122 115 132 175 143 41 61 37 24 21 18 5 1 0 0 0 0 0 0 0
39 0 7 100 69 74 5 36 47 31 49 9 16 26 13 2 0 0 0 0 0 0
24 3 0 0 36 18 53 56 35 49 11 7 13 11 7 2 0 0 1 0 0 0
46 40 12 11 23 22 42 42 15 18 11 1 15 24 7 5 4 9 5 4 0 0
27 0 0 10 3 5 21 38 8 25 6 9 8 1 2 0 0 10 14 7 4 0
4 8 16 4 0 19 8 22 21 14 1 0 7 1 1 1 2 2 3 8 13 7
7 0 0 4 3 3 4 0 1 1 1 1 11 1 1 1 2 1 2 3 2 8
13 6 5 6 5 3 5 8 4 3 0 1 1 1 1 1 1 2 0 0 0 5
0 8 8 20 18 1 2 0 1 5 3 1 0 0 1 0 0 0 0 0 0 0
5 7 14 5 5 6 4 1 1 1 0 0 0 0 0 0 0 0 0 0 0 0
2 4 3 2 5 2 1 0 0 0 0 0 0 0 0 0 0 0 0 0 0 0
0 0 0 0 0 0 0 0 0 0 0 0 0 0 0 0 0 0 0 0 0 0
0 0 0 0 0 0 0 0 0 0 0 0 0 0 0 0 0 0 0 0 0 0
0 0 0 0 0 0 0 0 0 0 0 0 0 0 0 0 0 0 0 0 0 0

GFSNIL_con_mucape_357.txt.gz
CAPE
236 221 156 195 177 228 194 131 117 87 35 29 18 3 5 7 6 5 3 0 0 0
235 268 257 206 138 124 173 166 140 86 26 27 20 6 1 0 0 0 0 0 0 0
182 124 223 190 147 159 159 123 86 87 45 8 15 17 9 10 5 1 1 1 0 0
53 8 53 66 89 52 14 9 0 4 24 30 10 22 16 27 5 2 7 5 0 0
23 70 57 7 1 0 9 23 0 23 3 10 29 11 0 0 0 0 0 4 7 4
11 68 46 12 30 1 4 3 18 8 27 0 1 0 9 1 0 0 0 0 5 3
81 10 17 19 6 21 0 0 6 3 5 1 1 6 4 11 0 0 1 1 5 1
70 40 45 16 3 1 7 0 0 1 2 3 1 1 1 1 0 0 0 1 2 5
29 36 16 6 0 4 0 2 0 0 2 0 1 1 1 0 0 0 0 0 0 0
5 0 2 0 2 4 6 4 5 8 12 5 1 3 0 0 0 0 0 1 0 0
1 1 1 0 1 0 4 1 2 0 0 4 3 2 1 0 0 0 0 0 0 0
0 0 0 0 0 9 12 2 0 0 0 0 0 1 0 0 0 0 0 0 0 0
0 0 0 0 0 9 0 1 1 0 0 0 0 0 0 0 0 0 0 0 0 0
0 0 0 0 0 0 0 0 0 0 0 0 0 0 0 0 0 0 0 0 0 0

GFSNIL_con_mucape_360.txt.gz
CAPE
291 242 256 240 208 244 336 287 188 101 65 62 31 11 10 3 4 6 8 1 0 0
239 323 276 183 179 198 200 172 234 132 70 56 42 12 5 5 3 5 6 5 0 0
392 188 58 111 9 138 23 137 245 160 79 64 36 25 21 15 8 6 4 0 0 0
287 213 224 142 122 60 63 54 57 22 15 21 46 17 18 20 7 4 0 0 0 0
343 205 174 140 162 145 170 78 56 9 34 3 0 28 22 11 0 8 1 28 3 0
214 279 104 14 48 28 79 30 2 20 20 3 0 0 0 0 0 9 0 0 0 0
114 56 3 2 22 22 6 12 12 2 0 1 2 0 0 0 0 0 0 2 1 0
58 9 33 3 16 47 31 11 0 0 10 2 0 1 0 0 0 0 0 0 1 1
41 4 15 20 29 62 19 5 0 6 0 0 0 0 0 1 0 0 0 0 0 1
69 58 44 34 43 17 3 6 2 4 1 1 10 2 4 2 0 0 0 0 0 0
19 54 42 34 10 25 17 11 6 16 33 4 2 0 3 2 0 0 0 0 0 0
7 3 12 18 1 14 9 4 0 5 2 7 0 2 2 3 1 1 0 0 0 0
0 0 0 1 0 0 5 3 2 1 0 3 2 2 0 0 0 1 1 0 0 0
0 0 0 0 0 0 0 2 1 4 4 7 11 4 7 2 0 1 0 0 0 0